Flag for United Kingdom Weather past 2 weeks in Guildford, England, United Kingdom

Now
72 °F

Scattered showers. Scattered clouds.


Feels Like: 77 °F
Forecast: 56 / 66 °F
Wind: 16 mph from West

Location: Farnborough Airport

Current Time: Jul 7, 2015 at 5:06:04 PM

Latest Report: Jul 7, 2015 at 4:20 PM


Visibility: N/A

Pressure: 29.74 "Hg

Humidity: 44%

Dew point: 48 °F

Location of GuildfordLocation

Historic Weather in Guildford — Graph

°F

Guildford temperature yesterday

Maximum temperature yesterday: 72 °F (at 2:50 PM)
Minimum temperature yesterday: 55 °F (at 6:50 AM)
Average temperature yesterday: 66 °F

Past Weeks' High & Low Weather Summary

 TemperatureHumidityPressure
High91 °F (Jul 1, 4:20 PM)94% (Jun 29, 6:50 AM)32.52 "Hg (Jun 29, 6:50 AM)
Low54 °F (Jun 23, 6:50 AM)28% (Jun 30, 7:20 PM)29.77 "Hg (Jul 7, 9:50 AM)
Average69 °F59%30.07 "Hg
* Reported Jun 22 3:20 PM — Jul 7 3:50 PM, Guildford, Weather by CustomWeather, © 2015

Note: Actual official high and low records may vary slightly from our data, if they occured in-between our weather recording intervals... More about our weather records

Advertising

Guildford weather history for previous 24 hours

 ConditionsComfort  
Time TempWeatherWind HumidityBarometerVisibility
3:50 PM
Tue, Jul 7
68 °FScattered showers. Partly sunny.12 mph53%29.77 "HgN/A
3:20 PM72 °FPartly sunny.13 mph47%29.77 "HgN/A
2:50 PM72 °FScattered clouds.17 mph50%29.77 "HgN/A
2:20 PM70 °FScattered clouds.15 mph57%29.77 "HgN/A
1:50 PM64 °FScattered clouds.15 mph64%29.77 "HgN/A
1:20 PM68 °FPartly sunny.16 mph60%29.77 "HgN/A
12:50 PM68 °FScattered clouds.15 mph69%29.77 "HgN/A
12:20 PM66 °FScattered showers. Scattered clouds.18 mph78%29.77 "HgN/A
11:50 AM66 °FScattered showers. Scattered clouds.18 mph73%29.77 "HgN/A
11:20 AM68 °FPartly sunny.20 mph64%29.77 "HgN/A
10:50 AM66 °FPartly sunny.20 mph73%29.80 "HgN/A
10:20 AM66 °FPartly sunny.17 mph73%29.80 "HgN/A
9:50 AM66 °FPartly sunny.14 mph83%29.77 "HgN/A
9:20 AM63 °FScattered clouds.8 mph94%29.80 "HgN/A
8:50 AM63 °FSprinkles. Broken clouds.12 mph94%29.80 "Hg3 mi
8:20 AM63 °FSprinkles. Partly sunny.14 mph83%29.80 "HgN/A
7:50 AM63 °FScattered clouds.9 mph77%29.80 "HgN/A
7:20 AM63 °FScattered clouds.9 mph77%29.83 "HgN/A
6:50 AM61 °FPassing clouds.8 mph83%29.83 "HgN/A
9:20 PM
Mon, Jul 6
61 °FSunny.8 mph68%30.01 "Hg10 mi
8:50 PM63 °FSunny.9 mph64%30.01 "Hg10 mi
8:20 PM64 °FPassing clouds.10 mph64%30.01 "HgN/A
7:50 PM66 °FPassing clouds.N/A60%30.01 "HgN/A
7:20 PM68 °FSunny.13 mph56%30.01 "Hg10 mi
6:50 PM68 °FSunny.14 mph53%30.01 "Hg10 mi
6:20 PM70 °FPassing clouds.14 mph53%30.01 "HgN/A
5:50 PM70 °FPassing clouds.14 mph53%30.01 "HgN/A
5:20 PM70 °FPassing clouds.13 mph53%30.04 "HgN/A
Weather by CustomWeather, © 2015

See weather overviewHow to use our weather pages